Regional Weather Roundup
Issued by NWS

Home | Current Version | Previous Version | Graphics & Text | Print | Product List | Glossary On
Versions: 1 2 3 4 5 6 7 8 9 10 11 12 13 14 15 16 17 18 19 20 21 22 23 24 25 26 27 28 29 30 31 32 33 34 35 36 37 38 39 40 41 42 43 44 45 46 47 48 49 50
000
ASUS43 KLSX 170307
RWRMO

WEATHER SUMMARY FOR MISSOURI
NATIONAL WEATHER SERVICE SPRINGFIELD MO
900 PM CST SAT DEC 16 2017

NOTE: "FAIR" INDICATES FEW OR NO CLOUDS BELOW 12,000 FEET WITH NO
       SIGNIFICANT WEATHER AND/OR OBSTRUCTIONS TO VISIBILITY.
       CURRENT SKY AND/OR WEATHER CONDITIONS ARE NOT AVAILABLE FOR
       CHILLICOTHE AND FARMINGTON.

MOZ001>031-035>038-043-044-053-054-170400-
...NORTHERN AND WESTERN MISSOURI...

CITY           SKY/WX    TMP DP  RH WIND       PRES   REMARKS
KANSAS CTY INT CLOUDY    43  27  53 S10       29.95R
KANSAS C DTWN  CLOUDY    50  26  39 SW5       29.96R
LEE`S SUMMIT   CLOUDY    49  27  42 S12       29.97R
ST JOSEPH      PTCLDY    33  25  72 S5        29.94S WCI  29
CHILLICOTHE      N/A     37  26  64 CALM      29.97F
KIRKSVILLE     CLOUDY    37  29  72 SE5       29.96F

$$
MOZ066>068-077>081-088>096-101>105-170400-
...SOUTHWEST MISSOURI...

CITY           SKY/WX    TMP DP  RH WIND       PRES   REMARKS
SPRINGFIELD    MOCLDY    50  25  37 S13       30.01S
JOPLIN         CLOUDY    50  28  42 S9        30.01R
BRANSON        MOCLDY    46  27  46 S7        30.06R

$$
MOZ032>034-039>042-045>050-055>058-069>072-170400-
...CENTRAL MISSOURI...

CITY           SKY/WX    TMP DP  RH WIND       PRES   REMARKS
COLUMBIA       CLOUDY    46  24  42 S7        30.01S
JEFFERSON CITY CLOUDY    45  25  45 E6        30.02S
ROLLA          CLOUDY    47  26  44 S12       30.04S
SEDALIA        CLOUDY    48  28  46 S8        30.00S
WHITEMAN AFB   PTCLDY    43  26  51 S6        29.95R
WARRENSBURG    MOCLDY    45  27  49 S5        29.98S
OSAGE BEACH    PTCLDY    47  25  42 SE6       30.02F

$$
MOZ051-052-059>065-170400-
...EAST CENTRAL MISSOURI...

CITY           SKY/WX    TMP DP  RH WIND       PRES   REMARKS
ST LOUIS INTL  CLOUDY    48  29  47 S6        30.05R
SPIRIT OF STL  PTCLDY    41  27  57 CALM      30.04S
ST CHARLES     CLOUDY    38  23  55 CALM      30.04R

$$
MOZ072>076-082>087-097>100-106>115-170400-
...SOUTH CENTRAL AND SOUTHEAST MISSOURI...

CITY           SKY/WX    TMP DP  RH WIND       PRES   REMARKS
CAPE GIRARDEAU CLOUDY    45  31  58 S12       30.13S
FARMINGTON     CLOUDY    43  29  57 S7        30.09S
POPLAR BLUFF   PTCLDY    43  31  62 S9        30.15R
WEST PLAINS    PTCLDY    45  28  51 S9        30.09R

$$



USA.gov is the U.S. government's official web portal to all federal, state and local government web resources and services.